Rbgn^[z[y[W
メイン
   新天体発見情報
     Comet C/2025 K3 (PANSTARRS)
投稿するにはまず登録を

スレッド表示 | 新しいものから 前のトピック | 次のトピック | 下へ
投稿者 スレッド
佐藤裕久
投稿日時: 2025-6-12 22:56
モデレータ
登録日: 2005-6-12
居住地: 日本
投稿: 2703
オンライン
Comet C/2025 K3 (PANSTARRS)

R. Weryk (西オンタリオ大学,物理および天文学科)の通報によると、5月23日、HaleakalaのPan-
STARRS2 1.8-m Ritchey-Chretien反射望遠鏡で得た画像から彗星を発見した。
4月28日、HaleakalaのPan-STARRS1 1.8-m Ritchey-Chretien反射望遠鏡で発見前の観測を行った。
Werykは、5月24.6日UT、3.6-m Canada-France-Hawaii望遠鏡(CFHT)で得た3枚の60-秒gri-バンド
フォローアップ露出から、これが彗星であることを確認した。0".6のシーイングで得た単一画像
では、1".0 (半値全幅:FWHM)の非常に集光した頭部とp.a. 170°に2"の尾がある。
6月3.55日、3枚の追加60-秒CFHTで得た画像から、p.a. 170°に2"の尾が見え、0".8のシーイング
で得た単一画像では、非常に集光した1".2 (FHWM)の頭部が見えた。

彗星機能の報告は次のとおり、

OC   Date        Reporter            Coma    Tail   PA   Comet     Date
                                                        (T/P)   Reported
T14  2025-05-24  R. Weryk            0".4      2"  170    T   2025-05-24.58
T14  2025-06-03  R. Weryk            0".5      2"  170    T   2025-06-03.56

発見位置は次のとおり(PCCP P22a7a0)、

     2025 UT             R.A. (2000) Decl.       Mag.
     Apr. 28.58346   19 31 29.40   +50 47 39.3   22.1
          28.58476   19 31 29.38   +50 47 39.7   22.2
          28.59279   19 31 29.24   +50 47 42.3   22.3
          28.59409   19 31 29.20   +50 47 42.5   22.6
          28.60367   19 31 29.06   +50 47 45.9   22.1
          28.61286   19 31 28.90   +50 47 49.2   22.4
     May  23.53992   19 21 31.91   +52 54 54.7   22.0
          23.54941   19 21 31.60   +52 54 57.7   21.9
          23.55890   19 21 31.28   +52 54 59.8   21.4
          23.56843   19 21 30.97   +52 55 02.7   21.6

MPCの双曲線軌道要素は次のとおり、

Orbital elements:
    C/2025 K3 (PANSTARRS)                                                       
Epoch 2025 May 5.0 TT = JDT 2460800.5                                           
T 2028 Dec. 13.76599 TT                                 Pike                    
q   3.4688531            (2000.0)            P               Q                  
z  -0.0004835      Peri.  188.59313     -0.96925650     +0.18896890             
 +/-0.0000320      Node   350.61365     +0.24023180     +0.58830081             
e   1.0016771      Incl.  104.93212     -0.05320272     -0.78625245             
From 34 observations 2025 Apr. 28-June 5, mean residual 0".2.                   
                                                                                
Ephemeris:
Date    TT    R. A. (2000) Decl.     Delta      r    Elong.  Phase   m1
2025 05 07    19 28 53.4 +51 33 19  10.7727 10.8142    89.7     5.4  21.9
...
2025 05 22    19 22 20.5 +52 47 55  10.6008 10.7225    94.2     5.4  21.8
...
2025 05 30    19 17 52.2 +53 22 27  10.5140 10.6735    96.3     5.4  21.8
...
2025 06 05    19 14 06.4 +53 45 12  10.4518 10.6367    97.8     5.4  21.8
2025 06 06    19 13 26.9 +53 48 43  10.4417 10.6306    98.0     5.4  21.8
2025 06 07    19 12 46.8 +53 52 08  10.4316 10.6244    98.2     5.4  21.8
...
2025 06 13    19 08 36.2 +54 10 44  10.3732 10.5876    99.5     5.4  21.7
...
2025 06 21    19 02 38.1 +54 30 07  10.3001 10.5384   100.8     5.4  21.7
...
2025 07 06    18 50 37.7 +54 47 57  10.1795 10.4461   102.5     5.5  21.6

(MPEC 2025-L43、CBET 5564)

スレッド表示 | 新しいものから 前のトピック | 次のトピック | トップ

投稿するにはまず登録を
 
© 1999 Tsutomu Seki.